Vertical_Velocity
-2 1 1 0 1 0 2 -2 -1 -1 0 -0 -1 -2 3 -0 -0 -2 -3 -5 1 -1 -3 -6 -2 -5 -6 -5 -5 -3 1 2 -1 -1 -4 6 -3 -1 -9 2 -0 -4 -1 -4 3 -4 -5 2 0
2 3 0 3 0 -0 2 -0 1 -1 -3 3 -2 0 0 -2 1 2 2 -1 -2 -6 -5 -4 0 1 0 -3 -1 -0 -6 -0 -5 -0 -4 7 -3 -1 -2 -1 1 -6 -3 1 -2 -2 2 1 -1
7 3 1 3 1 0 -1 -1 -3 -1 -0 -2 -2 -1 -1 -2 -2 0 3 -0 -3 -1 -4 -1 -1 -1 0 0 -4 -7 -0 -5 0 -2 -0 -1 3 -2 1 0 -6 -3 -1 -3 -5 -2 -2 1 0
3 1 2 -2 3 -1 -2 -3 -3 -0 -2 -4 -3 2 -0 -1 1 -1 -6 -6 -7 -5 -2 -4 -7 3 2 -3 -3 -4 -8 1 -4 0 -0 0 -2 -1 -1 -2 1 2 2 0 1 -1 -2 -2 -1
0 1 2 -0 1 -1 -2 1 -3 -1 -5 1 2 -3 -0 1 -0 -1 0 -3 -1 -2 -2 -5 -4 1 -5 0 -2 0 -0 -5 -2 -1 -1 -1 -0 -2 -2 2 1 -0 -0 -1 0 1 0 -2 -2
0 1 1 2 -7 -2 1 -3 -5 -1 -0 -1 1 1 -5 -3 -4 -4 -1 2 -5 3 1 -4 -1 -4 -4 -6 3 -2 -2 -2 -3 0 -1 -3 -5 -5 -2 -1 -1 -0 -2 -1 -0 -1 -1 -1 -1
-1 5 -1 -4 -1 3 1 -0 -2 -4 -3 1 2 -1 -3 -4 -2 3 -3 -8 -2 2 3 -2 -2 -10 1 0 -3 1 -5 -3 0 -1 -2 -4 -2 -2 -1 -1 -3 -2 -2 -3 -3 -3 -2 -1 -2
1 -1 -1 -2 3 -1 -5 1 3 -0 0 -4 -1 -6 1 0 -3 -1 4 -6 -3 -2 2 -3 -6 1 -9 2 1 -0 -2 -1 -1 -3 -1 -1 -1 0 -1 -1 0 -1 -3 -2 -1 -0 -0 -1 -1
5 4 0 -4 3 -7 -1 -1 -2 -4 3 1 -2 1 1 2 1 1 -4 -3 9 -3 -1 7 1 -2 -7 0 0 -0 1 1 -0 -1 -1 -0 -1 -1 -1 -1 -0 0 1 -1 -1 -2 -2 -1 -2
4 -1 1 -1 -2 -3 2 2 -1 2 -2 -0 -7 -5 -4 8 0 -2 -1 -6 -3 0 5 -2 0 0 -4 -0 -0 -0 -0 -1 -1 -0 -0 -2 -1 -2 -1 0 1 0 0 0 0 -1 -2 -2 -2
-5 -4 2 -0 5 4 1 1 -3 -1 -2 7 -2 -5 -4 -3 -3 -2 -11 7 1 0 3 1 -1 -3 -3 -1 -1 -2 -2 -1 -1 -1 -1 -0 1 -1 -1 -1 -1 -1 0 1 -0 -1 -2 -2 -1
-2 2 -2 2 3 4 -1 1 -5 7 -2 0 1 -2 1 6 4 -0 4 -9 -3 2 -2 2 -1 -1 1 0 0 -0 0 -0 0 1 1 1 -0 -1 -1 -2 -1 -0 -0 -1 -1 -0 -1 -1 -1
7 7 4 -5 9 -0 2 -2 3 -7 -0 -3 -3 4 -5 5 -1 -1 1 -2 -7 2 -0 2 -3 -2 1 1 1 1 -0 -0 1 2 2 2 1 2 2 1 1 0 1 1 1 1 1 2 -0
-5 -1 2 -2 6 -2 4 -0 1 -2 -1 -6 8 -10 1 -0 2 -2 -1 -11 -3 -0 3 2 -1 2 2 1 0 0 1 1 -1 1 2 2 0 1 1 1 1 3 3 3 3 2 1 -1 -0
-2 7 1 2 6 -1 -1 1 -4 -5 -4 1 2 -2 -2 1 -2 -1 -6 -4 2 4 3 -1 -1 2 1 -2 -2 -1 -0 1 1 2 3 -1 -0 -2 -1 -1 -3 -1 -1 -1 -2 -1 1 1 2
4 -1 2 0 10 -4 4 -3 -4 -3 0 -1 -2 2 -3 -3 -2 -4 -5 2 5 3 1 -2 -1 -2 -3 -1 0 0 3 3 -1 -3 -2 1 1 1 0 1 -1 0 1 -1 -2 -3 -3 -2 -4
-0 0 -6 -2 -0 4 4 -5 2 2 1 -1 4 -4 2 -0 -1 -2 0 4 3 3 2 1 2 -0 2 0 -0 0 -0 -2 -1 -1 -0 0 -1 -2 1 0 -1 -2 1 1 -0 2 1 -1 1
-3 -2 -1 -0 2 -1 -2 -0 -1 -3 1 2 -3 1 -0 -2 -2 1 3 2 0 -0 -2 -2 2 3 -1 1 -0 -1 -1 -0 -1 -2 -3 -2 -0 -0 0 1 1 -5 -0 0 -1 0 -4 6 -2
-1 2 4 3 -1 -1 1 -0 2 -1 -2 -0 1 -1 -3 0 1 2 0 -2 -3 -2 -0 -0 -1 0 0 -0 0 2 0 -3 -4 0 0 -3 -4 -4 -1 3 4 2 -1 4 1 -6 -1 3 -2
1 -0 -1 1 2 -0 1 -1 0 2 2 2 -1 0 2 2 1 -1 -1 1 1 -0 -1 -1 -0 0 -1 -1 -2 -2 0 -0 -1 1 -1 -1 3 0 -1 -2 -1 2 0 3 3 1 -1 -1 4
-0 -0 -2 -1 1 -2 -0 -2 1 1 1 0 2 2 2 1 0 2 3 2 2 1 -0 0 -1 -0 1 -1 -1 -1 1 -1 4 1 0 -3 -7 -5 -5 -2 -3 -1 -2 0 1 1 -1 -9 9
-2 -1 -1 -1 -1 -0 2 -2 -1 0 1 0 -2 -1 1 4 4 4 3 2 2 1 2 1 0 0 0 -0 1 3 -1 1 -1 -4 1 2 2 1 -2 -5 -5 -4 -2 -3 -3 -2 2 0 -8
-1 -0 2 1 2 4 1 3 -2 2 1 1 0 1 2 3 1 0 1 1 -0 -0 -0 1 0 1 1 2 -1 -5 -4 -2 -0 -1 0 1 1 -2 2 0 -2 -3 -3 -3 -5 0 2 2 -6
0 1 0 1 2 2 5 5 -7 4 2 -1 -2 1 1 1 0 2 1 -1 -1 0 1 2 1 1 -2 -3 -3 -0 2 2 1 1 -2 -1 -2 -4 -3 5 -2 -1 3 -2 -3 2 0 -2 0
0 -0 -2 -0 0 0 3 2 1 2 1 0 1 1 0 -1 -1 -1 -0 0 2 2 0 1 -1 -5 -3 -2 1 -1 -3 -3 -4 -3 -2 -1 1 2 1 -1 -2 -5 -4 -4 -1 -2 -6 4 -1
-1 0 0 -1 2 3 3 -1 -4 1 -1 -0 0 1 1 -0 -1 0 -0 -1 -1 -1 0 -0 -0 -1 2 2 3 -2 -1 -1 0 -0 0 -3 -5 -6 -10 -5 -3 -3 -3 -7 -7 -8 -9 -14 -8
1 1 1 1 1 2 3 3 0 -3 -0 -0 1 2 1 0 1 2 1 0 2 3 8 4 4 1 -2 1 2 3 2 3 -0 1 -1 -3 -3 -3 -1 -2 -4 -6 -3 -8 -6 -10 -8 -4 -3
0 -0 -2 1 -5 0 4 3 7 -1 -2 0 -1 1 0 1 1 2 1 -2 -2 1 1 -1 2 4 4 5 5 2 2 2 1 -1 0 2 -1 0 -4 -6 -6 -8 -8 -8 -6 -2 -2 1 -1
-1 -0 -0 -0 3 -3 -4 9 3 1 -1 -0 0 3 6 6 1 -0 0 -0 1 -0 0 -2 -2 1 1 1 -0 -2 -2 -5 -3 -5 -2 1 -3 -3 -6 -5 1 -3 -4 1 1 2 2 4 2
-1 -3 -1 -2 -6 3 -1 9 -3 -2 -2 2 4 3 -2 -2 -3 2 2 2 1 3 1 -3 -0 3 -1 -2 -1 -3 -5 -2 -4 -3 -2 0 -1 -5 1 -1 -3 2 -0 -4 -2 2 3 2 -0
Height
5851 5852 5851 5853 5857 5854 5853 5853 5852 5850 5852 5852 5851 5851 5851 5851 5850 5851 5848 5847 5846 5844 5844 5845 5843 5841 5839 5839 5838 5837 5835 5834 5832 5831 5830 5830 5826 5827 5825 5823 5822 5820 5818 5816 5816 5814 5811 5808 5807
5846 5847 5847 5848 5851 5848 5848 5847 5847 5848 5848 5848 5848 5849 5848 5848 5847 5847 5847 5845 5843 5843 5842 5840 5840 5838 5836 5835 5834 5834 5832 5831 5830 5829 5826 5825 5823 5822 5820 5819 5819 5816 5813 5812 5812 5810 5807 5805 5804
5841 5842 5845 5845 5846 5844 5843 5843 5845 5845 5845 5845 5845 5845 5845 5844 5844 5843 5841 5840 5840 5838 5838 5837 5837 5835 5833 5832 5831 5831 5830 5828 5828 5826 5823 5821 5819 5817 5817 5816 5813 5811 5810 5809 5807 5806 5804 5802 5801
5838 5838 5840 5841 5840 5840 5841 5842 5842 5842 5842 5842 5842 5842 5841 5840 5840 5839 5838 5837 5837 5837 5835 5834 5833 5832 5832 5830 5829 5828 5827 5826 5824 5822 5820 5818 5817 5816 5814 5812 5811 5809 5807 5805 5804 5802 5801 5800 5798
5834 5834 5835 5836 5836 5839 5839 5839 5839 5840 5839 5840 5840 5839 5839 5838 5837 5836 5835 5835 5835 5834 5833 5831 5831 5831 5830 5829 5827 5826 5825 5824 5822 5821 5819 5818 5817 5815 5813 5812 5811 5809 5806 5804 5802 5801 5799 5797 5796
5830 5831 5833 5832 5834 5836 5836 5837 5838 5838 5838 5838 5838 5837 5836 5836 5834 5833 5833 5833 5832 5832 5831 5831 5831 5830 5829 5827 5827 5826 5824 5822 5822 5821 5820 5817 5815 5812 5811 5810 5808 5806 5804 5802 5801 5799 5797 5796 5794
5827 5828 5831 5830 5834 5834 5835 5836 5836 5836 5836 5836 5836 5836 5836 5835 5833 5832 5831 5832 5831 5831 5832 5832 5830 5831 5828 5827 5825 5824 5822 5821 5820 5819 5817 5815 5812 5810 5809 5807 5805 5802 5801 5799 5798 5797 5796 5794 5793
5826 5828 5828 5830 5832 5833 5834 5834 5834 5835 5835 5835 5835 5835 5835 5834 5832 5832 5832 5833 5832 5832 5831 5830 5829 5826 5825 5824 5823 5821 5820 5819 5818 5816 5814 5811 5809 5807 5805 5803 5801 5799 5797 5795 5793 5792 5792 5791 5790
5826 5829 5828 5830 5832 5831 5832 5833 5835 5835 5835 5834 5834 5834 5833 5833 5832 5832 5831 5832 5831 5831 5829 5827 5825 5824 5822 5821 5819 5818 5817 5816 5814 5812 5810 5808 5806 5803 5801 5799 5798 5796 5793 5791 5790 5788 5787 5786 5785
5827 5829 5829 5829 5830 5830 5832 5832 5834 5835 5835 5833 5833 5833 5833 5833 5832 5832 5831 5830 5831 5829 5827 5825 5823 5821 5818 5817 5816 5815 5814 5813 5811 5808 5806 5804 5802 5799 5797 5794 5792 5789 5787 5786 5784 5782 5780 5779 5778
5826 5828 5828 5828 5830 5831 5832 5833 5834 5835 5835 5834 5833 5832 5832 5830 5831 5830 5829 5829 5829 5827 5825 5823 5822 5820 5818 5816 5815 5813 5811 5809 5807 5805 5803 5800 5797 5794 5791 5789 5786 5783 5781 5778 5776 5774 5772 5771 5770
5826 5826 5827 5829 5831 5832 5832 5834 5835 5834 5834 5833 5832 5831 5830 5830 5829 5829 5828 5829 5827 5824 5822 5821 5819 5817 5815 5813 5811 5809 5807 5804 5802 5799 5796 5794 5791 5787 5784 5781 5778 5776 5774 5771 5769 5767 5764 5762 5761
5827 5828 5828 5832 5832 5834 5833 5833 5834 5833 5834 5832 5832 5831 5830 5830 5829 5828 5826 5825 5824 5822 5820 5818 5816 5814 5812 5811 5808 5805 5802 5799 5797 5793 5790 5787 5784 5781 5778 5775 5772 5769 5766 5763 5761 5759 5757 5755 5753
5828 5829 5830 5830 5832 5833 5832 5832 5832 5834 5833 5831 5831 5831 5830 5830 5828 5827 5825 5824 5821 5819 5816 5814 5812 5810 5808 5806 5803 5801 5797 5794 5790 5787 5784 5780 5777 5774 5771 5767 5764 5761 5759 5756 5753 5750 5748 5746 5744
5829 5829 5831 5831 5833 5833 5832 5832 5832 5831 5831 5830 5829 5829 5829 5828 5826 5825 5822 5819 5816 5815 5813 5810 5808 5806 5804 5801 5797 5793 5789 5785 5782 5780 5777 5773 5769 5766 5763 5759 5755 5751 5748 5745 5742 5740 5737 5735 5733
5829 5830 5831 5831 5832 5832 5832 5831 5831 5828 5828 5828 5828 5827 5826 5825 5823 5821 5818 5815 5813 5811 5809 5807 5804 5801 5797 5793 5790 5786 5782 5779 5775 5772 5768 5765 5760 5755 5752 5748 5745 5741 5737 5733 5730 5727 5725 5723 5721
5829 5830 5831 5832 5831 5830 5829 5829 5829 5828 5827 5827 5826 5824 5823 5821 5819 5816 5813 5811 5809 5807 5804 5801 5797 5793 5790 5787 5782 5778 5774 5771 5767 5762 5758 5753 5749 5744 5740 5737 5733 5729 5725 5721 5718 5715 5713 5711 5708
5829 5829 5829 5829 5828 5827 5827 5827 5827 5826 5825 5824 5822 5821 5821 5819 5816 5813 5810 5807 5804 5801 5797 5793 5790 5787 5782 5779 5774 5770 5766 5761 5757 5752 5748 5743 5739 5734 5730 5727 5723 5719 5714 5711 5707 5704 5700 5697 5696
5827 5827 5827 5826 5825 5826 5826 5825 5825 5823 5822 5821 5820 5819 5817 5815 5812 5809 5806 5803 5800 5796 5791 5787 5783 5779 5774 5769 5765 5760 5756 5751 5746 5742 5738 5734 5730 5725 5720 5714 5709 5705 5701 5697 5694 5690 5687 5684 5679
5825 5824 5824 5824 5824 5824 5823 5822 5822 5821 5819 5818 5816 5814 5812 5809 5807 5804 5801 5797 5794 5790 5785 5781 5776 5771 5766 5761 5756 5752 5747 5742 5737 5733 5728 5722 5716 5710 5704 5700 5695 5691 5687 5683 5678 5674 5671 5668 5664
5823 5822 5822 5822 5822 5821 5821 5820 5818 5818 5815 5814 5811 5809 5807 5804 5802 5798 5795 5791 5787 5783 5778 5772 5768 5763 5758 5753 5748 5742 5738 5732 5726 5720 5714 5708 5703 5697 5692 5688 5683 5678 5672 5669 5664 5659 5655 5651 5649
5819 5819 5819 5818 5818 5818 5817 5817 5814 5812 5810 5808 5806 5804 5801 5799 5795 5792 5788 5784 5779 5775 5770 5765 5760 5755 5750 5745 5739 5733 5727 5721 5716 5710 5704 5697 5691 5684 5678 5672 5666 5660 5655 5651 5647 5643 5638 5631 5631
5816 5816 5816 5815 5814 5814 5813 5812 5808 5807 5805 5803 5800 5798 5795 5792 5788 5783 5779 5775 5770 5765 5761 5757 5752 5747 5741 5735 5729 5723 5716 5710 5702 5694 5687 5680 5673 5667 5661 5652 5645 5641 5636 5631 5626 5622 5617 5611 5607
5812 5811 5811 5810 5809 5808 5807 5807 5802 5802 5800 5796 5794 5791 5787 5784 5780 5776 5771 5766 5762 5757 5753 5748 5742 5736 5729 5723 5716 5709 5702 5694 5686 5679 5673 5666 5659 5651 5642 5635 5628 5622 5615 5608 5601 5596 5590 5585 5580
5807 5807 5806 5806 5804 5803 5801 5801 5797 5795 5792 5789 5786 5783 5779 5775 5771 5766 5762 5757 5753 5747 5742 5736 5729 5722 5715 5708 5702 5694 5688 5680 5673 5666 5659 5651 5642 5633 5625 5615 5606 5598 5590 5583 5576 5569 5562 5560 5554
5803 5803 5802 5800 5800 5798 5796 5795 5792 5789 5785 5781 5778 5774 5770 5765 5761 5756 5751 5746 5742 5736 5730 5724 5717 5710 5703 5696 5690 5683 5676 5667 5658 5648 5638 5628 5619 5609 5600 5591 5582 5574 5565 5557 5550 5541 5532 5523 5519
5800 5799 5798 5796 5795 5793 5792 5789 5785 5780 5776 5772 5769 5764 5759 5755 5752 5748 5743 5737 5732 5726 5720 5714 5706 5699 5692 5685 5677 5669 5660 5650 5638 5628 5617 5606 5596 5587 5578 5568 5558 5550 5541 5531 5522 5511 5502 5492 5484
5796 5794 5793 5791 5788 5786 5786 5781 5775 5771 5766 5763 5760 5756 5751 5748 5743 5737 5731 5725 5719 5713 5706 5700 5693 5685 5677 5669 5658 5647 5636 5626 5616 5606 5597 5586 5575 5565 5555 5545 5534 5523 5512 5499 5489 5479 5472 5468 5465
5792 5789 5787 5784 5782 5778 5775 5777 5768 5760 5757 5755 5753 5750 5745 5740 5733 5728 5724 5717 5709 5702 5696 5688 5679 5670 5660 5649 5639 5629 5618 5608 5598 5587 5576 5565 5553 5543 5531 5520 5508 5495 5483 5472 5464 5459 5455 5453 5450
5786 5782 5779 5776 5773 5769 5766 5768 5761 5754 5752 5748 5746 5739 5734 5730 5724 5718 5712 5705 5697 5689 5681 5671 5662 5654 5644 5633 5622 5612 5602 5589 5577 5565 5553 5543 5531 5519 5508 5494 5482 5471 5462 5455 5449 5445 5442 5439 5435